ONEWEB-0682, 56718

Orbit data source: Space-Track

ONEWEB-0682, 56718 is a payload satellite owned by One Web (NAA) (UK) in LEO that was launched on Sat, 20 May 2023 UTC via an FALCON 9 launch vehicle from the Air Force Western Test Range (AFWTR). Payloads include a variety of satellites, spacecraft, and rockets equipped with specific instruments for various scientific and technological missions. These include communications satellites like Starlink; space stations such as the ISS; scientific satellites like the Hubble; Earth observation satellites from companies like Planet Labs, Umbra, and HawkEye 360; GPS; miniature CubeSats for education and research; and military/defense satellites.

Loading next visibility...
ONEWEB-0682 details
Identifier
56718, 2023-068J
Orbit
LEO
Last TLE update17 hours ago
Origin
Flag of UKOne Web (NAA) (UK)
ManufacturerOne Web
MissionOperational Commercial Communications
Bus & MotorARROW, Unknown motor
Mass148 kg wet, ~140 kg dry
Launch date (UTC)
2023-05-20 (2 years ago)
Launch vehicle
FALCON 9
Launch site
Air Force Western Test Range (AFWTR)
Object type
Payload
Rocket body
Debris
Shape & HBRTrap Box + 2 Pan, 5 m
Radar Cross Section2.032 m², Large (>1 m²)

Expand to show TLE details & history

TLE from 17 hours ago
0 ONEWEB-0682
1 56718U 23068J   25014.93150739  .00000068  00000-0  14729-3 0  9995
2 56718  87.9078   2.3945 0002276  81.2251 278.9137 13.15549368 81312
Epoch: 2025-01-14T22:21Z
Definitive object data (Epoch: 2025-01-14T22:21:22.238Z)
Latitude-0.00002°
Longitude-87.57928°
Altitude1,204.396 km
Speed7.252 km/s
True Right ascension00h 09m 34s
True Declination0° 00' 00"
Sunlit
Object was in daylight at TLE epoch
Visualization TLE readout
Latitude8.29797°
Longitude91.97391°
Altitude1,204.042 km
Speed7.253 km/s
Apparent Right ascension09h 29m 30s
Apparent Declination-23° 30' 29"
Sunlit
Object is in daylight
Visualization observer readout
Local Sidereal Time16:20:07
Azimuth258.808° W
Elevation-24.207°
Doppler factor1
Orbital elements
Apogee altitude1,200.604 km
Perigee altitude1,197.155 km
Semi-major axis7,577.017 km
Eccentricity0.0002276
Inclination87.9078°
RAAN2.3945°
Arg. of periapsis81.2251°
True anomaly278.88793°
Mean anomaly278.9137°
Eccentric anomaly278.90082°
Mean motion3.29076 °/min
BSTAR0.00014729
Orbital period109.4 mins
Loading maneuver chart data...
Loading historical data...
Loading historical data...
Loading historical data...
Loading historical data...
Loading historical data...
Loading historical data...
Loading historical data...

ONEWEB-0682 Visibility forecast

Observer location: undefined°, undefined

Span
Click to sort rows by Start time (UTC) header in descending order
Start Az.
Max El. time (UTC)
Max El. Az.
Max El.
End time (UTC)
End Az.
11 mins2025-01-15 22:12:14.304Z129.269° SE2025-01-15 22:18:14.304Z71.333° E24.095°2025-01-15 22:23:14.304Z25.552° NE
12 mins2025-01-16 00:01:14.304Z202.444° SSW2025-01-16 00:07:14.304Z285.434° WNW38.728°2025-01-16 00:13:14.304Z349.595° N
9 mins2025-01-16 09:40:14.304Z37.651° NE2025-01-16 09:44:14.304Z75.83° E19.13°2025-01-16 09:49:14.304Z120.141° SE
13 mins2025-01-16 11:28:14.304Z353.336° N2025-01-16 11:34:14.304Z279.359° WNW43.179°2025-01-16 11:41:14.304Z192.128° SSW
|